[[{"header":{"parameterUnit":"m.s-1","parameterCategory":1,"la1":30.2991,"la2":30.254,"lo1":-89.0895,"lo2":-89.0444,"dy":0.0017,"dx":0.0017,"nx":28,"ny":28,"refTime":"2024-06-29T21:00:00:Z","depth":0,"parameterNumber":2,"parameterNumberName":"U-component_of_WINDS"},"data":[0,0,0,0,0,0,0,0,0,0,0,0,0,0,0,0,0,0,0,0,0,0,0,0,0,0,0,0,0,0,0,0,0,0,0,0,0,0,0,0,0,0,0,0,0,0,0,0,0,0,0,0,0,0,0,0,0,0,0.1492,0.1492,0,0.1474,0.1474,0.1474,0.1467,0.1467,0.1467,0.1467,0.1449,0.1449,0.1448,0,0,0,0,0,0,0,0,0,0,0,0,0,0.152,0.1519,0.1492,0.1492,0.1491,0.1474,0.1474,0.1474,0.1467,0.1467,0.1467,0.1467,0.1449,0.1449,0.1448,0,0,0,0,0,0,0,0,0,0,0,0,0,0.1505,0.1519,0.1492,0.1486,0.1485,0.1474,0.1474,0.1474,0.1467,0.1467,0.1467,0.1467,0.145,0.1449,0.1448,0.1442,0,0,0.1446,0.1445,0,0,0,0,0,0,0,0,0.1506,0.1504,0.1487,0.1486,0.1486,0.1473,0.1477,0.1463,0.1467,0.1474,0.1467,0.1467,0.1457,0.1456,0.1452,0.1441,0.144,0.1446,0.1445,0.1445,0.1445,0,0,0,0,0,0,0,0.1507,0.1505,0.1485,0.1487,0.1486,0.1484,0.1482,0.1474,0.1465,0.1473,0.1473,0.1471,0.1457,0.1453,0.1452,0.144,0.1446,0.1445,0.1444,0.1444,0.1421,0.1421,0,0,0,0,0,0,0.1509,0.1506,0.1485,0.1484,0.1496,0.1484,0.1482,0.1477,0.1465,0.1464,0.1471,0.1471,0.1454,0.1453,0.1451,0.1442,0.1445,0.1444,0.1444,0.1421,0.1421,0.1421,0,0,0,0,0,0,0.151,0.1507,0.1486,0.1495,0.1492,0.1483,0.1478,0.1477,0.1473,0.1463,0.1462,0.1469,0.1454,0.1452,0.1444,0.1441,0.1444,0.1443,0.1421,0.1421,0.1421,0.1425,0,0,0,0,0,0,0.1511,0.1508,0.1505,0.1495,0.1492,0.1479,0.1478,0.1476,0.1471,0.1471,0.1461,0.1459,0.1454,0.1445,0.1443,0.144,0.1442,0.1422,0.1421,0.1421,0.1425,0.1425,0.1424,0,0,0,0,0,0.1512,0.1507,0.1505,0.1503,0.1488,0.1479,0.1477,0.1471,0.1471,0.1469,0.1463,0.146,0.1442,0.1444,0.1442,0.1439,0.1422,0.1421,0.1421,0.1425,0.1425,0.1424,0,0,0,0,0,0,0.1517,0.1506,0.1503,0.1495,0.1488,0.1478,0.1475,0.1472,0.1464,0.1464,0.1457,0.1455,0.1447,0.1442,0.1445,0.1432,0.1432,0.1431,0.1435,0.1435,0.1435,0.1436,0.1442,0,0,0,0,0,0.1517,0.1511,0.1501,0.1495,0.1492,0.1484,0.1479,0.1475,0.1468,0.1465,0.1458,0.1451,0.1444,0.1439,0.1432,0.1424,0.1421,0.1421,0.1421,0.1421,0.142,0.1415,0.1414,0.142,0.142,0.142,0,0,0.1518,0.1511,0.1507,0.1496,0.149,0.1483,0.1481,0.1474,0.1469,0.1464,0.1455,0.145,0.1442,0.1433,0.1429,0.1429,0.1418,0.142,0.142,0.142,0.1414,0.1414,0.1413,0.142,0.142,0.142,0,0,0.1515,0.151,0.1504,0.1498,0.1489,0.1483,0.1482,0.1472,0.1468,0.146,0.1455,0.1449,0.1437,0.1431,0.1426,0.1421,0.1418,0.1419,0.1418,0.1413,0.1413,0.1412,0.141,0.1409,0.1418,0.1418,0.1418,0,0.1517,0.1507,0.1501,0.1494,0.1489,0.1484,0.1477,0.1472,0.1461,0.1458,0.1458,0.1442,0.1436,0.1426,0.1424,0.1421,0.1419,0.142,0.1413,0.1413,0.1412,0.141,0.1409,0.1418,0.1418,0.1418,0.1418,0,0.1509,0.1502,0.1499,0.1488,0.1483,0.1476,0.1469,0.1464,0.146,0.1455,0.1446,0.1439,0.143,0.1427,0.1423,0.1416,0.1416,0.1415,0.1415,0.1412,0.141,0.1409,0.1419,0.1419,0.1419,0.1419,0,0,0.151,0.1496,0.1495,0.1489,0.1479,0.1473,0.1467,0.1458,0.1453,0.1446,0.144,0.143,0.1428,0.1423,0.1419,0.1414,0.141,0.1413,0.1413,0.1413,0.1401,0.1401,0.1401,0.1408,0.1408,0.1408,0.1401,0,0.1506,0.1493,0.1487,0.1477,0.147,0.1465,0.1459,0.1452,0.1447,0.144,0.1434,0.1427,0.1426,0.1422,0.1418,0.1411,0.1407,0.1412,0.1402,0.1401,0.1404,0.1399,0.14,0.1395,0.14,0.14,0.14,0,0.1499,0.1492,0.1481,0.1471,0.1468,0.1462,0.1454,0.1447,0.1439,0.1435,0.1429,0.1425,0.1417,0.1418,0.1407,0.141,0.1405,0.1402,0.1401,0.14,0.14,0.1397,0.1393,0.1392,0.1399,0.1399,0.1399,0,0.15,0.1487,0.1479,0.1475,0.1463,0.146,0.1454,0.1446,0.1441,0.1433,0.143,0.1421,0.1416,0.141,0.1403,0.1404,0.1393,0.1393,0.1389,0.1389,0.1387,0.1387,0.1381,0.1384,0.1384,0.1385,0.1385,0,0.1496,0.1489,0.1479,0.1474,0.1467,0.146,0.1453,0.1447,0.144,0.1433,0.1428,0.1422,0.1414,0.1407,0.1402,0.1393,0.1391,0.1388,0.1386,0.1388,0.1388,0.1385,0.1385,0.1384,0.1384,0.1384,0.1384,0,0.1496,0.1489,0.1479,0.1469,0.1466,0.1461,0.1452,0.1446,0.1441,0.1433,0.143,0.1421,0.1413,0.1406,0.1394,0.1391,0.1382,0.138,0.1384,0.1384,0.138,0.1381,0.1371,0.137,0.1375,0.1375,0.1375,0,0.1493,0.1488,0.1477,0.1472,0.1467,0.146,0.1454,0.1447,0.1442,0.1432,0.1427,0.1418,0.1411,0.1397,0.1389,0.1381,0.1379,0.1376,0.1377,0.1379,0.1378,0.1378,0.1378,0.1376,0.1376,0.1376,0.1376,0,0.149,0.1486,0.1479,0.147,0.1464,0.1456,0.1449,0.1445,0.1437,0.1431,0.1422,0.1416,0.1404,0.1395,0.1385,0.138,0.1376,0.1376,0.1374,0.1376,0.1378,0.1376,0.1384,0.1376,0.1376,0.1376,0.1376,0.1376,0.1488,0.1483,0.1474,0.1466,0.1459,0.1452,0.1447,0.144,0.1433,0.1423,0.1419,0.1409,0.1401,0.1387,0.1382,0.1374,0.1374,0.1372,0.1371,0.1371,0.1371,0.138,0.1372,0.1372,0.1372,0.1372,0.1372,0,0.1484,0.1478,0.147,0.146,0.1453,0.145,0.1442,0.1436,0.1428,0.142,0.1413,0.1402,0.1393,0.1385,0.1375,0.1371,0.1369,0.1368,0.1368,0.1367,0.1372,0.1374,0.137,0.137,0.137,0.137,0.137,0.137,0.1481,0.1472,0.1467,0.1455,0.1449,0.144,0.1435,0.1429,0.1422,0.141,0.1403,0.1397,0.1389,0.1379,0.137,0.1368,0.1365,0.1365,0.1362,0.1366,0.1367,0.1367,0.1369,0.1364,0.1364,0.1358,0.1358,0.1357]},{"header":{"parameterUnit":"m.s-1","parameterCategory":1,"la1":30.2991,"la2":30.254,"lo1":-89.0895,"lo2":-89.0444,"dy":0.0017,"dx":0.0017,"nx":28,"ny":28,"refTime":"2024-06-29T21:00:00:Z","depth":0,"parameterNumber":3,"parameterNumberName":"V-component_of_WINDS"},"data":[0,0,0,0,0,0,0,0,0,0,0,0,0,0,0,0,0,0,0,0,0,0,0,0,0,0,0,0,0,0,0,0,0,0,0,0,0,0,0,0,0,0,0,0,0,0,0,0,0,0,0,0,0,0,0,0,0,0,2.231,2.231,0,2.2277,2.2277,2.2277,2.227,2.227,2.2271,2.2271,2.2233,2.2232,2.2231,0,0,0,0,0,0,0,0,0,0,0,0,0,2.2364,2.2363,2.231,2.231,2.2309,2.2277,2.2277,2.2277,2.227,2.227,2.2271,2.2271,2.2233,2.2232,2.223,0,0,0,0,0,0,0,0,0,0,0,0,0,2.2337,2.2363,2.231,2.2302,2.2301,2.2278,2.2277,2.2276,2.227,2.227,2.2271,2.2271,2.2234,2.2232,2.223,2.2211,0,0,2.2225,2.2224,0,0,0,0,0,0,0,0,2.2339,2.2335,2.2304,2.2303,2.2302,2.2278,2.2282,2.2254,2.227,2.2282,2.2271,2.2271,2.2247,2.2245,2.2237,2.2209,2.2207,2.2224,2.2223,2.2222,2.2222,0,0,0,0,0,0,0,2.234,2.2336,2.2297,2.2304,2.2302,2.23,2.2296,2.2277,2.2263,2.2281,2.228,2.2277,2.2247,2.2239,2.2236,2.2207,2.2224,2.2223,2.2222,2.2221,2.2162,2.2161,0,0,0,0,0,0,2.2344,2.2338,2.2298,2.2296,2.2322,2.2298,2.2294,2.2285,2.2263,2.226,2.2276,2.2276,2.2242,2.2239,2.2235,2.2211,2.2222,2.2221,2.222,2.2162,2.2161,2.2161,0,0,0,0,0,0,2.2345,2.2341,2.2299,2.2317,2.2312,2.2297,2.2287,2.2284,2.2277,2.226,2.2257,2.2271,2.2242,2.2238,2.2217,2.221,2.222,2.2218,2.2163,2.2162,2.2161,2.2163,0,0,0,0,0,0,2.2347,2.2341,2.2334,2.2317,2.2311,2.2283,2.2286,2.2284,2.2274,2.2274,2.2254,2.2251,2.2242,2.222,2.2215,2.2207,2.2217,2.2163,2.2162,2.2161,2.2163,2.2162,2.2161,0,0,0,0,0,2.2349,2.2335,2.2334,2.2329,2.2302,2.2283,2.2279,2.227,2.2273,2.2266,2.2255,2.2252,2.2212,2.2218,2.2213,2.2204,2.2163,2.2162,2.2161,2.2164,2.2162,2.2161,0,0,0,0,0,0,2.2349,2.2332,2.2331,2.2311,2.2299,2.2282,2.2272,2.2269,2.2254,2.2255,2.2243,2.2239,2.2219,2.221,2.2217,2.2184,2.2188,2.2185,2.2191,2.219,2.2189,2.2191,2.2215,0,0,0,0,0,2.2348,2.2335,2.232,2.2304,2.2298,2.2286,2.2277,2.2272,2.2258,2.2252,2.224,2.2225,2.221,2.2199,2.2184,2.2162,2.2158,2.2154,2.2153,2.2152,2.215,2.2138,2.2136,2.2158,2.2158,2.2158,0,0,2.2343,2.2332,2.2324,2.2304,2.2293,2.2279,2.2281,2.2266,2.2256,2.2249,2.223,2.2221,2.2204,2.2183,2.2173,2.2174,2.2143,2.2151,2.215,2.2148,2.2137,2.2135,2.2133,2.2157,2.2157,2.2157,0,0,2.2327,2.2318,2.2304,2.2294,2.2279,2.2272,2.2269,2.2252,2.2246,2.2227,2.2223,2.2209,2.2182,2.2171,2.2161,2.2144,2.214,2.2139,2.2133,2.2122,2.212,2.2119,2.2112,2.211,2.2137,2.2137,2.2137,0,2.2322,2.2302,2.2296,2.2282,2.2273,2.2269,2.2254,2.2245,2.2225,2.2219,2.2221,2.2188,2.2176,2.2153,2.2149,2.2142,2.2137,2.214,2.2121,2.212,2.2118,2.2112,2.2109,2.2137,2.2137,2.2137,2.2137,0,2.2298,2.2284,2.2274,2.2257,2.2248,2.2233,2.2224,2.2214,2.2211,2.2203,2.2183,2.217,2.2152,2.2146,2.2141,2.2123,2.2124,2.2124,2.2127,2.2116,2.211,2.2108,2.2137,2.2137,2.2137,2.2137,0,0,2.2279,2.2261,2.2257,2.225,2.2235,2.2223,2.2209,2.2193,2.2185,2.2172,2.2159,2.2138,2.2139,2.2128,2.2122,2.2112,2.21,2.2114,2.2113,2.2111,2.2078,2.2077,2.2075,2.2098,2.2097,2.2097,2.2079,0,2.2261,2.2237,2.2231,2.221,2.2197,2.2194,2.2182,2.217,2.2163,2.2151,2.2142,2.2127,2.2129,2.2123,2.2113,2.2103,2.2093,2.2104,2.2085,2.2084,2.2088,2.2072,2.2071,2.2055,2.2077,2.2076,2.2076,0,2.2236,2.2225,2.2203,2.219,2.2185,2.2173,2.2159,2.2148,2.2135,2.213,2.212,2.2116,2.21,2.2105,2.2083,2.2091,2.2083,2.2077,2.2076,2.2073,2.2079,2.2067,2.2049,2.2047,2.2072,2.2073,2.2073,0,2.2225,2.2204,2.2188,2.2182,2.2167,2.2159,2.2152,2.214,2.2132,2.2119,2.2113,2.2099,2.209,2.2078,2.207,2.2075,2.2049,2.2053,2.2044,2.2044,2.2037,2.2038,2.2017,2.2034,2.2034,2.2034,2.2034,0,2.2205,2.2191,2.2183,2.2173,2.2158,2.2152,2.2136,2.2129,2.2119,2.2107,2.2104,2.2093,2.2083,2.207,2.2064,2.2047,2.2043,2.2038,2.2036,2.2038,2.2038,2.2031,2.2032,2.2033,2.2033,2.2033,2.2033,0,2.2188,2.2183,2.2165,2.2154,2.215,2.2139,2.2129,2.2119,2.2113,2.2098,2.2094,2.2084,2.2069,2.206,2.204,2.2036,2.2017,2.2016,2.2022,2.2021,2.2012,2.2013,2.1985,2.1981,2.2001,2.2001,2.2001,0,2.2175,2.2165,2.2153,2.2146,2.214,2.2128,2.212,2.2114,2.2105,2.2091,2.2083,2.2068,2.2056,2.2032,2.2022,2.2008,2.2006,2.1997,2.2003,2.2006,2.2005,2.2006,2.2004,2.1996,2.1996,2.1995,2.1995,0,2.2153,2.2151,2.214,2.2129,2.212,2.211,2.21,2.2094,2.2087,2.2077,2.2063,2.2054,2.2035,2.2021,2.2006,2.1997,2.1995,2.1994,2.1991,2.1992,2.1996,2.1993,2.2018,2.1994,2.1994,2.1994,2.1994,2.1994,2.2137,2.2129,2.2119,2.2107,2.21,2.2092,2.2082,2.2076,2.2064,2.205,2.2047,2.2032,2.2021,2.2001,2.1992,2.198,2.1981,2.1977,2.1976,2.1975,2.1974,2.1999,2.1977,2.1977,2.1977,2.1977,2.1977,0,2.2114,2.2109,2.2098,2.2086,2.2077,2.2078,2.2067,2.2059,2.2047,2.2037,2.2026,2.201,2.1996,2.1986,2.1972,2.1964,2.1963,2.196,2.196,2.1959,2.1974,2.1978,2.1962,2.1962,2.1962,2.1962,2.1962,2.1962,2.2101,2.2087,2.2084,2.2066,2.206,2.2047,2.2041,2.2033,2.2025,2.2008,2.1997,2.1992,2.1982,2.1967,2.1955,2.1952,2.1947,2.1945,2.1942,2.1956,2.1957,2.1959,2.1963,2.1944,2.1944,2.1927,2.1927,2.1927]}]]